• Em Portugal
  • Lista de países
  • Para 7 dias
  • Temperatura da água
  • Mapas de satélite
  • Mapa do tempo
  • Widgets de tempo
  • user-avatar
    Iniciar Sessão

    Previsão horária em Bugojno

    Hoje, 25 Setembro, Terça-feira

    Tempo Temperatura Precipitação Vento Pressão Humidade
    00:00 +4°C° 0 mm 3 m/s 719 mmHg 84%
    01:00 +5°C° 0 mm 2 m/s 719 mmHg 87%
    02:00 +5°C° 0 mm 2 m/s 719 mmHg 87%
    03:00 +5°C° 0 mm 2 m/s 719 mmHg 87%
    04:00 +4°C° 0 mm 3 m/s 720 mmHg 87%
    05:00 +4°C° 0 mm 3 m/s 720 mmHg 84%
    06:00 +5°C° 0 mm 3 m/s 720 mmHg 82%
    07:00 +6°C° 0 mm 4 m/s 720 mmHg 78%
    08:00 +7°C° 0 mm 4 m/s 721 mmHg 71%
    09:00 +8°C° 0 mm 5 m/s 721 mmHg 64%
    10:00 +9°C° 0 mm 5 m/s 721 mmHg 57%
    11:00 +10°C° 0 mm 6 m/s 721 mmHg 53%
    12:00 +11°C° 0 mm 6 m/s 721 mmHg 50%
    13:00 +11°C° 0 mm 6 m/s 721 mmHg 46%
    14:00 +11°C° 0 mm 6 m/s 721 mmHg 47%
    15:00 +10°C° 0 mm 6 m/s 721 mmHg 47%
    16:00 +10°C° 0 mm 5 m/s 721 mmHg 48%
    17:00 +8°C° 0 mm 5 m/s 721 mmHg 54%
    18:00 +6°C° 0 mm 4 m/s 721 mmHg 60%
    19:00 +5°C° 0 mm 3 m/s 721 mmHg 66%
    20:00 +4°C° 0 mm 3 m/s 722 mmHg 68%
    21:00 +4°C° 0 mm 3 m/s 722 mmHg 70%
    22:00 +3°C° 0 mm 3 m/s 723 mmHg 72%
    23:00 +3°C° 0 mm 3 m/s 723 mmHg 74%

    Amanhã, 26 Setembro, Quarta-feira

    Tempo Temperatura Precipitação Vento Pressão Humidade
    00:00 +2°C° 0 mm 3 m/s 723 mmHg 76%
    01:00 +2°C° 0 mm 3 m/s 723 mmHg 78%
    02:00 +2°C° 0 mm 3 m/s 723 mmHg 80%
    03:00 +2°C° 0 mm 2 m/s 723 mmHg 82%
    04:00 +2°C° 0 mm 2 m/s 723 mmHg 84%
    05:00 +3°C° 0 mm 2 m/s 723 mmHg 80%
    06:00 +2°C° 0 mm 3 m/s 723 mmHg 75%
    07:00 +3°C° 0 mm 3 m/s 724 mmHg 71%
    08:00 +5°C° 0 mm 3 m/s 724 mmHg 61%
    09:00 +8°C° 0 mm 4 m/s 725 mmHg 51%
    10:00 +10°C° 0 mm 5 m/s 725 mmHg 42%
    11:00 +12°C° 0 mm 4 m/s 725 mmHg 40%
    12:00 +13°C° 0 mm 4 m/s 725 mmHg 38%
    13:00 +14°C° 0 mm 4 m/s 724 mmHg 36%
    14:00 +13°C° 0 mm 4 m/s 724 mmHg 37%
    15:00 +13°C° 0 mm 3 m/s 724 mmHg 39%
    16:00 +13°C° 0 mm 3 m/s 723 mmHg 41%
    17:00 +10°C° 0 mm 2 m/s 723 mmHg 48%
    18:00 +8°C° 0 mm 2 m/s 723 mmHg 56%
    19:00 +7°C° 0 mm 1 m/s 723 mmHg 63%
    20:00 +6°C° 0 mm 1 m/s 723 mmHg 64%
    21:00 +6°C° 0 mm 1 m/s 723 mmHg 65%
    22:00 +5°C° 0 mm 1 m/s 723 mmHg 66%
    23:00 +5°C° 0 mm 1 m/s 723 mmHg 65%

    Depois de amanhã, 27 Setembro, Quinta-feira

    Tempo Temperatura Precipitação Vento Pressão Humidade
    00:00 +5°C° 0 mm 1 m/s 723 mmHg 64%
    01:00 +5°C° 0 mm 1 m/s 723 mmHg 63%
    02:00 +5°C° 0 mm 1 m/s 723 mmHg 61%
    03:00 +5°C° 0 mm 1 m/s 722 mmHg 59%
    04:00 +5°C° 0 mm 1 m/s 722 mmHg 56%
    05:00 +6°C° 0 mm 1 m/s 722 mmHg 53%
    06:00 +7°C° 0 mm 1 m/s 722 mmHg 50%
    07:00 +8°C° 0 mm 1 m/s 722 mmHg 47%
    08:00 +11°C° 0 mm 1 m/s 722 mmHg 41%
    09:00 +14°C° 0 mm 2 m/s 722 mmHg 34%
    10:00 +17°C° 0 mm 2 m/s 723 mmHg 27%
    11:00 +18°C° 0 mm 2 m/s 722 mmHg 26%
    12:00 +19°C° 0 mm 2 m/s 722 mmHg 26%
    13:00 +20°C° 0 mm 2 m/s 722 mmHg 25%
    14:00 +19°C° 0 mm 2 m/s 721 mmHg 29%
    15:00 +19°C° 0 mm 2 m/s 720 mmHg 33%
    16:00 +18°C° 0 mm 2 m/s 720 mmHg 36%
    17:00 +16°C° 0 mm 2 m/s 719 mmHg 41%
    18:00 +13°C° 0 mm 2 m/s 719 mmHg 46%
    19:00 +9°C° 0 mm 2 m/s 718 mmHg 50%
    20:00 +9°C° 0 mm 2 m/s 718 mmHg 51%
    21:00 +10°C° 0 mm 1 m/s 718 mmHg 51%
    22:00 +9°C° 0 mm 1 m/s 718 mmHg 51%
    23:00 +9°C° 0 mm 1 m/s 718 mmHg 50%

    28 Setembro, Sexta-feira

    Tempo Temperatura Precipitação Vento Pressão Humidade
    00:00 +9°C° 0 mm 1 m/s 717 mmHg 49%
    01:00 +9°C° 0 mm 1 m/s 717 mmHg 48%
    02:00 +9°C° 0 mm 1 m/s 716 mmHg 48%
    03:00 +9°C° 0 mm 1 m/s 716 mmHg 47%
    04:00 +9°C° 0 mm 1 m/s 715 mmHg 46%
    05:00 +9°C° 0 mm 1 m/s 715 mmHg 47%
    06:00 +10°C° 0 mm 1 m/s 715 mmHg 48%
    07:00 +11°C° 0 mm 1 m/s 715 mmHg 49%
    08:00 +14°C° 0 mm 1 m/s 715 mmHg 44%
    09:00 +18°C° 0 mm 1 m/s 715 mmHg 40%
    10:00 +20°C° 0 mm 2 m/s 715 mmHg 36%
    11:00 +21°C° 0 mm 2 m/s 714 mmHg 36%
    12:00 +23°C° 0 mm 2 m/s 714 mmHg 36%
    13:00 +24°C° 0 mm 2 m/s 714 mmHg 36%
    14:00 +23°C° 0 mm 2 m/s 713 mmHg 39%
    15:00 +23°C° 0 mm 2 m/s 713 mmHg 43%
    16:00 +21°C° 0 mm 2 m/s 712 mmHg 46%
    17:00 +19°C° 0 mm 1 m/s 712 mmHg 53%
    18:00 +16°C° 0 mm 1 m/s 712 mmHg 60%
    19:00 +13°C° 0 mm 1 m/s 712 mmHg 68%
    20:00 +12°C° 0 mm 1 m/s 712 mmHg 69%
    21:00 +12°C° 0 mm 1 m/s 712 mmHg 70%
    22:00 +11°C° 0 mm 1 m/s 712 mmHg 71%
    23:00 +11°C° 0 mm 1 m/s 712 mmHg 71%

    29 Setembro, Sábado

    Tempo Temperatura Precipitação Vento Pressão Humidade
    00:00 +11°C° 0 mm 1 m/s 712 mmHg 72%
    01:00 +10°C° 0 mm 1 m/s 711 mmHg 72%
    02:00 +10°C° 0 mm 1 m/s 711 mmHg 73%
    03:00 +10°C° 0 mm 1 m/s 711 mmHg 74%
    04:00 +10°C° 0 mm 1 m/s 711 mmHg 74%
    05:00 +10°C° 0 mm 1 m/s 712 mmHg 73%
    06:00 +11°C° 0 mm 1 m/s 712 mmHg 71%
    07:00 +12°C° 0 mm 1 m/s 712 mmHg 69%
    08:00 +14°C° 0 mm 2 m/s 713 mmHg 61%
    09:00 +17°C° 0 mm 2 m/s 713 mmHg 54%
    10:00 +19°C° 0 mm 3 m/s 713 mmHg 46%
    11:00 +20°C° 0 mm 3 m/s 713 mmHg 46%
    12:00 +20°C° 0 mm 4 m/s 713 mmHg 45%
    13:00 +20°C° 0 mm 4 m/s 713 mmHg 44%
    14:00 +20°C° 0 mm 4 m/s 713 mmHg 47%
    15:00 +19°C° 0 mm 4 m/s 713 mmHg 50%
    16:00 +19°C° 0 mm 4 m/s 713 mmHg 52%
    17:00 +17°C° 0 mm 3 m/s 713 mmHg 60%
    18:00 +14°C° 0 mm 3 m/s 713 mmHg 68%
    19:00 +13°C° 0 mm 2 m/s 713 mmHg 76%
    20:00 +12°C° 0 mm 2 m/s 714 mmHg 79%
    21:00 +10°C° 0 mm 2 m/s 714 mmHg 82%
    22:00 +9°C° 0 mm 2 m/s 714 mmHg 85%
    23:00 +9°C° 0 mm 2 m/s 714 mmHg 85%

    30 Setembro, Domingo

    Tempo Temperatura Precipitação Vento Pressão Humidade
    00:00 +8°C° 0 mm 2 m/s 714 mmHg 85%
    01:00 +8°C° 0 mm 2 m/s 714 mmHg 86%
    02:00 +9°C° 0 mm 1 m/s 714 mmHg 87%
    03:00 +8°C° 0 mm 1 m/s 713 mmHg 88%
    04:00 +8°C° 0 mm 1 m/s 713 mmHg 90%
    05:00 +8°C° 0 mm 1 m/s 713 mmHg 88%
    06:00 +9°C° 0 mm 1 m/s 713 mmHg 86%
    07:00 +8°C° 0 mm 2 m/s 713 mmHg 84%
    08:00 +12°C° 0 mm 2 m/s 713 mmHg 74%
    09:00 +14°C° 0 mm 2 m/s 714 mmHg 64%
    10:00 +16°C° 0 mm 2 m/s 714 mmHg 54%
    11:00 +17°C° 0 mm 2 m/s 713 mmHg 51%
    12:00 +18°C° 0 mm 2 m/s 713 mmHg 48%
    13:00 +19°C° 0 mm 2 m/s 713 mmHg 45%
    14:00 +19°C° 0 mm 2 m/s 712 mmHg 46%
    15:00 +19°C° 0 mm 2 m/s 712 mmHg 48%
    16:00 +18°C° 0 mm 2 m/s 712 mmHg 49%
    17:00 +16°C° 0 mm 2 m/s 712 mmHg 57%
    18:00 +13°C° 0 mm 1 m/s 711 mmHg 66%
    19:00 +11°C° 0 mm 1 m/s 711 mmHg 74%
    20:00 +10°C° 0 mm 1 m/s 711 mmHg 75%
    21:00 +10°C° 0 mm 1 m/s 711 mmHg 76%
    22:00 +9°C° 0 mm 1 m/s 711 mmHg 77%
    23:00 +9°C° 0 mm 1 m/s 710 mmHg 78%
    Mostrar mais